GJOHN EGKA-EGHP

Flight info

Callsign GJOHN
Flight time 0h 35m
Altitude 1500
Route SHOREHAM WORTHING LITTLEHAMPTON BOGNOR REGIS FISHBOURNE WEST MARDEN PETERSFIELD WEST MEON CROSS ROADS NEW ALRESFORD ABBOTS WORTHY WEST STRATTON POPHAM
Aircraft C182/L-VGDW/C

Departure

Time 2026-05-05 13:37
Airport Brighton City Airport (EGKA)

Arrival

Time 2026-05-05 14:12
Airport Popham Airfield (EGHP)
Time Latitude Longitude Altitude Speed Heading
2026-05-05 13:31 50.83407 -0.29026 11 ft 0 kts 288°
2026-05-05 13:33 50.83407 -0.29027 11 ft 0 kts 288°
2026-05-05 13:34 50.83420 -0.29060 11 ft 11 kts 311°
2026-05-05 13:34 50.83456 -0.29110 11 ft 9 kts 253°
2026-05-05 13:34 50.83431 -0.29242 11 ft 13 kts 253°
2026-05-05 13:34 50.83395 -0.29367 11 ft 13 kts 243°
2026-05-05 13:35 50.83355 -0.29498 11 ft 13 kts 244°
2026-05-05 13:35 50.83315 -0.29631 11 ft 13 kts 244°
2026-05-05 13:35 50.83272 -0.29763 11 ft 13 kts 243°
2026-05-05 13:35 50.83240 -0.29862 11 ft 10 kts 242°
2026-05-05 13:36 50.83245 -0.29923 11 ft 2 kts 23°
2026-05-05 13:36 50.83298 -0.29893 11 ft 33 kts 22°
2026-05-05 13:36 50.83673 -0.29657 66 ft 76 kts 20°
2026-05-05 13:36 50.84212 -0.29316 298 ft 85 kts 21°
2026-05-05 13:37 50.84759 -0.28944 575 ft 85 kts 22°
2026-05-05 13:37 50.85205 -0.28370 871 ft 84 kts 52°
2026-05-05 13:37 50.85303 -0.27446 1092 ft 93 kts 93°
2026-05-05 13:37 50.85022 -0.26454 1237 ft 104 kts 113°
2026-05-05 13:38 50.84524 -0.25651 1326 ft 108 kts 152°
2026-05-05 13:38 50.83783 -0.25606 1374 ft 109 kts 197°
2026-05-05 13:38 50.83110 -0.26121 1381 ft 105 kts 221°
2026-05-05 13:38 50.82820 -0.27075 1397 ft 89 kts 278°
2026-05-05 13:39 50.82953 -0.27993 1481 ft 87 kts 290°
2026-05-05 13:39 50.83111 -0.28977 1510 ft 98 kts 289°
2026-05-05 13:39 50.83264 -0.30081 1510 ft 107 kts 284°
2026-05-05 13:39 50.83303 -0.31133 1510 ft 113 kts 275°
2026-05-05 13:40 50.83259 -0.32397 1507 ft 117 kts 270°
2026-05-05 13:40 50.83172 -0.33681 1502 ft 118 kts 268°
2026-05-05 13:40 50.83068 -0.34956 1500 ft 116 kts 267°
2026-05-05 13:40 50.82958 -0.36218 1500 ft 116 kts 267°
2026-05-05 13:41 50.82847 -0.37474 1500 ft 115 kts 267°
2026-05-05 13:41 50.82733 -0.38741 1500 ft 115 kts 267°
2026-05-05 13:41 50.82619 -0.39990 1500 ft 115 kts 267°
2026-05-05 13:41 50.82506 -0.41235 1501 ft 115 kts 267°
2026-05-05 13:42 50.82393 -0.42480 1501 ft 115 kts 267°
2026-05-05 13:42 50.82279 -0.43724 1501 ft 115 kts 267°
2026-05-05 13:42 50.82165 -0.44971 1501 ft 115 kts 267°
2026-05-05 13:42 50.82051 -0.46215 1501 ft 115 kts 266°
2026-05-05 13:43 50.81937 -0.47458 1502 ft 114 kts 266°
2026-05-05 13:43 50.81823 -0.48701 1502 ft 115 kts 266°
2026-05-05 13:43 50.81709 -0.49945 1502 ft 115 kts 266°
2026-05-05 13:43 50.81594 -0.51190 1502 ft 115 kts 266°
2026-05-05 13:44 50.81480 -0.52433 1503 ft 115 kts 266°
2026-05-05 13:44 50.81365 -0.53678 1503 ft 114 kts 266°
2026-05-05 13:44 50.81235 -0.54920 1503 ft 115 kts 265°
2026-05-05 13:44 50.81088 -0.56175 1504 ft 115 kts 264°
2026-05-05 13:45 50.80940 -0.57415 1504 ft 115 kts 264°
2026-05-05 13:45 50.80790 -0.58655 1504 ft 115 kts 264°
2026-05-05 13:45 50.80641 -0.59893 1505 ft 115 kts 264°
2026-05-05 13:45 50.80491 -0.61133 1505 ft 115 kts 264°
2026-05-05 13:46 50.80341 -0.62372 1505 ft 115 kts 264°
2026-05-05 13:46 50.80191 -0.63611 1506 ft 115 kts 264°
2026-05-05 13:46 50.80040 -0.64857 1507 ft 116 kts 264°
2026-05-05 13:46 50.79887 -0.66112 1507 ft 117 kts 264°
2026-05-05 13:47 50.79734 -0.67375 1508 ft 118 kts 264°
2026-05-05 13:47 50.79757 -0.68628 1504 ft 113 kts 291°
2026-05-05 13:47 50.80043 -0.69770 1508 ft 111 kts 298°
2026-05-05 13:47 50.80367 -0.70888 1509 ft 110 kts 300°
2026-05-05 13:48 50.80689 -0.71973 1509 ft 109 kts 300°
2026-05-05 13:48 50.81012 -0.73054 1509 ft 109 kts 300°
2026-05-05 13:48 50.81339 -0.74142 1509 ft 110 kts 299°
2026-05-05 13:48 50.81667 -0.75238 1510 ft 111 kts 299°
2026-05-05 13:49 50.81996 -0.76339 1510 ft 111 kts 299°
2026-05-05 13:49 50.82327 -0.77444 1518 ft 111 kts 299°
2026-05-05 13:49 50.82656 -0.78542 1525 ft 110 kts 299°
2026-05-05 13:49 50.82986 -0.79646 1527 ft 110 kts 299°
2026-05-05 13:50 50.83313 -0.80741 1528 ft 111 kts 299°
2026-05-05 13:50 50.83784 -0.81673 1502 ft 109 kts 323°
2026-05-05 13:50 50.84390 -0.82378 1495 ft 108 kts 328°
2026-05-05 13:50 50.85006 -0.83038 1493 ft 107 kts 329°
2026-05-05 13:51 50.85624 -0.83685 1492 ft 106 kts 329°
2026-05-05 13:51 50.86240 -0.84324 1495 ft 106 kts 329°
2026-05-05 13:51 50.86855 -0.84962 1499 ft 106 kts 329°
2026-05-05 13:51 50.87469 -0.85597 1500 ft 105 kts 329°
2026-05-05 13:52 50.88079 -0.86230 1501 ft 105 kts 329°
2026-05-05 13:52 50.88700 -0.86873 1501 ft 105 kts 329°
2026-05-05 13:52 50.89316 -0.87510 1502 ft 106 kts 329°
2026-05-05 13:52 50.89932 -0.88148 1503 ft 106 kts 329°
2026-05-05 13:53 50.90546 -0.88785 1503 ft 105 kts 329°
2026-05-05 13:53 50.91157 -0.89419 1503 ft 105 kts 329°
2026-05-05 13:53 50.91811 -0.89968 1505 ft 108 kts 336°
2026-05-05 13:53 50.92497 -0.90466 1505 ft 110 kts 338°
2026-05-05 13:54 50.93201 -0.90964 1506 ft 111 kts 338°
2026-05-05 13:54 50.93914 -0.91463 1506 ft 112 kts 338°
2026-05-05 13:54 50.94621 -0.91957 1506 ft 109 kts 338°
2026-05-05 13:54 50.95310 -0.92438 1505 ft 108 kts 338°
2026-05-05 13:55 50.95991 -0.92915 1506 ft 107 kts 338°
2026-05-05 13:55 50.96680 -0.93396 1506 ft 107 kts 338°
2026-05-05 13:55 50.97353 -0.93866 1507 ft 108 kts 338°
2026-05-05 13:55 50.98050 -0.94353 1507 ft 108 kts 338°
2026-05-05 13:56 50.98738 -0.94834 1507 ft 108 kts 338°
2026-05-05 13:56 50.99329 -0.95556 1502 ft 111 kts 308°
2026-05-05 13:56 50.99707 -0.96623 1502 ft 111 kts 300°
2026-05-05 13:56 51.00053 -0.97714 1502 ft 111 kts 300°
2026-05-05 13:57 51.00396 -0.98801 1502 ft 110 kts 300°
2026-05-05 13:57 51.00738 -0.99886 1502 ft 110 kts 300°
2026-05-05 13:57 51.01084 -1.00978 1502 ft 111 kts 300°
2026-05-05 13:57 51.01432 -1.02079 1502 ft 112 kts 300°
2026-05-05 13:58 51.01783 -1.03190 1502 ft 113 kts 300°
2026-05-05 13:58 51.02134 -1.04304 1502 ft 113 kts 300°
2026-05-05 13:58 51.02484 -1.05416 1501 ft 112 kts 300°
2026-05-05 13:58 51.02836 -1.06533 1501 ft 112 kts 300°
2026-05-05 13:59 51.03818 -1.08330 1500 ft 108 kts 322°
2026-05-05 13:59 51.04398 -1.09112 1501 ft 108 kts 323°
2026-05-05 14:00 51.05555 -1.10627 1502 ft 108 kts 323°
2026-05-05 14:00 51.05938 -1.11126 1501 ft 108 kts 323°
2026-05-05 14:00 51.06713 -1.12134 1501 ft 108 kts 323°
2026-05-05 14:00 51.07292 -1.12887 1501 ft 108 kts 323°
2026-05-05 14:01 51.07870 -1.13640 1501 ft 108 kts 323°
2026-05-05 14:01 51.08449 -1.14395 1501 ft 108 kts 323°
2026-05-05 14:01 51.08888 -1.15349 1494 ft 111 kts 290°
2026-05-05 14:01 51.09009 -1.16567 1501 ft 112 kts 279°
2026-05-05 14:02 51.09086 -1.17814 1503 ft 112 kts 279°
2026-05-05 14:02 51.09164 -1.19045 1503 ft 112 kts 280°
2026-05-05 14:02 51.09244 -1.20273 1503 ft 112 kts 279°
2026-05-05 14:02 51.09324 -1.21507 1502 ft 112 kts 279°
2026-05-05 14:03 51.09405 -1.22740 1502 ft 113 kts 279°
2026-05-05 14:03 51.09486 -1.23984 1501 ft 113 kts 280°
2026-05-05 14:03 51.09567 -1.25230 1501 ft 114 kts 280°
2026-05-05 14:03 51.09689 -1.26464 1496 ft 112 kts 295°
2026-05-05 14:04 51.10224 -1.27251 1490 ft 106 kts 344°
2026-05-05 14:04 51.10866 -1.27109 1494 ft 104 kts 30°
2026-05-05 14:04 51.11456 -1.26449 1504 ft 104 kts 30°
2026-05-05 14:04 51.12104 -1.25959 1504 ft 103 kts 20°
2026-05-05 14:05 51.12773 -1.25609 1501 ft 96 kts 15°
2026-05-05 14:05 51.13392 -1.25332 1468 ft 88 kts 14°
2026-05-05 14:05 51.13957 -1.25023 1421 ft 85 kts 19°
2026-05-05 14:05 51.14502 -1.24709 1352 ft 82 kts 11°
2026-05-05 14:06 51.15055 -1.24667 1239 ft 76 kts 359°
2026-05-05 14:06 51.15570 -1.24806 1198 ft 75 kts 343°
2026-05-05 14:06 51.16028 -1.25155 1177 ft 72 kts 334°
2026-05-05 14:06 51.16460 -1.25559 1148 ft 71 kts 331°
2026-05-05 14:07 51.16879 -1.25968 1097 ft 70 kts 331°
2026-05-05 14:07 51.17300 -1.26370 999 ft 70 kts 332°
2026-05-05 14:07 51.17718 -1.26709 915 ft 65 kts 341°
2026-05-05 14:07 51.18153 -1.26769 852 ft 63 kts
2026-05-05 14:08 51.18575 -1.26576 799 ft 64 kts 19°
2026-05-05 14:08 51.18933 -1.26160 757 ft 64 kts 44°
2026-05-05 14:08 51.19069 -1.25462 695 ft 71 kts 73°
2026-05-05 14:08 51.19160 -1.24704 610 ft 66 kts 75°
2026-05-05 14:09 51.19259 -1.24050 554 ft 55 kts 69°
2026-05-05 14:09 51.19372 -1.23332 636 ft 78 kts 72°
2026-05-05 14:09 51.19528 -1.22513 742 ft 78 kts 54°
2026-05-05 14:09 51.19993 -1.22205 812 ft 78 kts 348°
2026-05-05 14:10 51.20285 -1.22836 859 ft 76 kts 277°
2026-05-05 14:10 51.20104 -1.23636 863 ft 72 kts 252°
2026-05-05 14:10 51.19946 -1.24340 868 ft 68 kts 261°
2026-05-05 14:10 51.19858 -1.25096 867 ft 69 kts 268°
2026-05-05 14:11 51.19821 -1.25852 833 ft 66 kts 271°
2026-05-05 14:11 51.19618 -1.26520 775 ft 72 kts 221°
2026-05-05 14:11 51.19155 -1.26471 737 ft 72 kts 132°
2026-05-05 14:11 51.19056 -1.25760 708 ft 67 kts 88°
2026-05-05 14:12 51.19101 -1.25041 652 ft 63 kts 73°
2026-05-05 14:12 51.19203 -1.24383 576 ft 59 kts 70°
2026-05-05 14:12 51.19296 -1.23827 554 ft 41 kts 70°
2026-05-05 14:12 51.19351 -1.23501 554 ft 19 kts 77°
2026-05-05 14:13 51.19374 -1.23432 554 ft 6 kts 360°
2026-05-05 14:13 51.19380 -1.23493 554 ft 6 kts 256°
2026-05-05 14:13 51.19371 -1.23567 554 ft 9 kts 259°
2026-05-05 14:13 51.19351 -1.23701 554 ft 11 kts 256°
2026-05-05 14:14 51.19350 -1.23785 554 ft 6 kts 296°
2026-05-05 14:14 51.19357 -1.23821 554 ft 0 kts 261°